#timestamp,LO_Frequency,Hit,StdDev 
1645506015.2,286046998.1,N
1645506035.1,286047001.2,N
1645506036.0,286047001.2,N
1645506055.8,286047002.6,N
1645506075.7,286047000.9,N
1645506095.5,286047000.7,N
1645506115.3,286047000.4,N
1645506135.2,286047002.4,N
1645506155.0,286047002.4,N
1645506155.9,286047002.4,N
1645506175.8,286047002.3,N
1645506195.6,286047004.1,N
1645506215.4,286047001.7,N
1645506235.3,286047000.2,N
1645506255.1,286047000.0,N
1645506275.8,286047000.6,N
1645506295.7,286047001.0,N
1645506315.5,286047000.7,N
1645506335.4,286047002.8,N
1645506355.2,286047002.6,N
1645506375.0,286047002.3,N
1645506375.9,286047002.3,N
1645506395.8,286047002.7,N
1645506415.6,286047000.3,N
1645506435.4,286046999.7,N
1645506455.3,286047002.7,N
1645506475.1,286047000.2,N
1645506495.9,286047002.6,N
1645506515.7,286047000.0,N
1645506535.5,286047000.2,N
1645506555.4,286047002.6,N
1645506575.2,286046999.9,N
1645506595.1,286046999.8,N
1645506596.0,286046999.8,N
1645506615.8,286047001.6,N
1645506635.6,286047003.7,N
1645506655.5,286047003.5,N
1645506675.3,286047001.3,N
1645506695.2,286047003.9,N
1645506715.9,286047003.7,N
1645506735.7,286047004.1,N
1645506755.6,286047003.2,N
1645506775.4,286047005.7,Y
1645506795.2,286047004.3,P
1645506815.1,286047002.0,N
1645506816.0,286047002.0,N
1645506835.8,286047002.0,N
1645506855.7,286046999.7,N
1645506875.5,286047002.8,N
1645506895.3,286047000.3,N
1645506915.2,286047000.5,N
1645506935.0,286047000.8,N
1645506935.9,286047000.8,N
1645506955.8,286047002.7,N
1645506975.6,286047002.4,N
1645506995.4,286046999.9,N
1645507015.3,286046999.9,N
1645507035.1,286047002.8,N
1645507055.8,286047001.0,N
1645507075.7,286047000.0,N
1645507095.5,286047000.9,N
1645507115.4,286047001.2,N
1645507135.2,286047000.9,N
1645507155.0,286047000.1,N
1645507155.9,286047000.1,N
1645507175.8,286047000.4,N
1645507195.6,286047001.1,N
1645507215.4,286046999.9,N
1645507235.3,286047000.3,N
1645507255.1,286047000.4,N
1645507275.9,286047001.0,N
1645507295.7,286047001.0,N
1645507315.5,286047001.0,N
1645507335.4,286047000.3,N
1645507355.2,286047000.8,N
1645507375.0,286047001.2,N
1645507375.9,286047001.2,N
1645507395.8,286047001.0,N
1645507415.6,286047001.0,N
1645507435.5,286047000.0,N
1645507455.3,286047001.2,N
1645507475.1,286047000.7,N
1645507495.9,286047001.1,N
1645507515.7,286047001.1,N
1645507535.5,286046998.1,N
1645507555.4,286047000.8,N
1645507575.2,286046998.4,N
1645507595.1,286046999.5,N
1645507596.0,286046999.5,N
1645507615.8,286047001.1,N
1645507635.6,286046998.3,N
1645507655.5,286047001.2,N
1645507675.3,286046998.6,N
1645507695.1,286046999.2,N
1645507715.9,286046998.3,N
1645507735.7,286047001.0,N
1645507755.6,286047001.2,N
1645507775.4,286046998.3,N
1645507795.2,286047001.0,N
1645507815.1,286047000.0,N
1645507816.0,286047000.0,N
1645507835.8,286047002.7,N
1645507855.7,286047000.3,N
1645507875.5,286047000.6,N
1645507895.6,286047000.0,N
1645507915.4,286047002.6,N
1645507935.3,286047003.9,Y
1645507955.1,286047004.0,P
1645507975.9,286047002.2,N
1645507995.7,286047002.4,N
1645508015.5,286047004.3,Y
1645508035.4,286046998.9,P
1645508055.2,286046997.0,N
1645508075.1,286046999.5,N
1645508076.0,286046999.5,N
1645508095.8,286046996.6,N
1645508115.6,286046999.2,N
1645508135.5,286046999.3,N
1645508155.3,286046998.9,N
1645508175.1,286046996.5,N
1645508195.9,286046999.5,N
1645508215.7,286046995.0,Y
1645508235.6,286046996.5,P
1645508255.4,286046996.6,N
1645508275.2,286046999.2,N
1645508295.1,286046996.8,N
1645508296.0,286046996.8,N
1645508315.8,286046997.0,N
1645508335.7,286046996.8,Y
1645508355.5,286046999.9,P
1645508375.3,286047000.6,N
1645508395.2,286047000.7,N
1645508415.9,286047000.8,N
1645508435.7,286047000.9,N
1645508455.6,286047000.5,N
1645508475.4,286047000.3,N
1645508495.2,286047000.3,N
1645508515.1,286047000.6,N
1645508516.0,286047000.6,N
1645508535.8,286046998.8,N
1645508555.7,286046999.1,N
1645508575.5,286046996.8,Y
1645508595.3,286046997.7,P
1645508615.2,286046996.8,N
1645508635.0,286046997.1,N
1645508635.9,286046997.1,N
1645508655.8,286046998.5,N
1645508675.6,286047001.0,N
1645508695.4,286047000.7,N
1645508715.3,286047000.6,N
1645508735.1,286046999.9,N
1645508755.9,286047000.1,N
1645508775.7,286047000.6,N
1645508795.5,286046999.9,N
1645508815.4,286047000.6,N
1645508835.2,286047000.3,N
1645508855.0,286047002.8,N
1645508855.9,286047002.8,N
1645508875.8,286047002.7,N
1645508895.6,286047000.2,N
1645508915.5,286046999.9,N
1645508935.3,286047000.6,N
1645508955.1,286046999.0,N
1645508975.9,286046998.5,N
1645508995.7,286047000.6,N
1645509015.6,286046998.2,N
1645509035.4,286046998.4,N
1645509055.2,286046999.2,N
1645509075.1,286046999.2,N
1645509076.0,286046999.2,N
1645509095.8,286046998.9,N
1645509115.6,286046998.8,N
1645509135.5,286046999.2,N
1645509155.3,286046998.6,N
1645509175.2,286047001.1,N
1645509195.9,286046999.3,N
1645509215.7,286046998.8,N
1645509235.6,286047000.0,N
1645509255.4,286047000.6,N
1645509275.3,286047000.6,N
1645509295.1,286046998.7,N
1645509296.0,286046998.7,N
1645509315.8,286046999.4,N
1645509335.7,286046998.3,N
1645509355.5,286046999.9,N
1645509375.3,286047001.0,N
1645509395.2,286047000.0,N
1645509415.0,286047000.5,N
1645509415.9,286047000.5,N
1645509435.8,286047000.3,N
1645509455.6,286047000.3,N
1645509475.4,286047000.8,N
1645509495.3,286046999.8,N
1645509515.1,286046999.7,N
1645509535.8,286047000.5,N
1645509555.7,286047000.8,N
1645509575.5,286046999.8,N
1645509595.4,286047000.6,N
